Погода в Ангра-дус-Рейс

Бразилия     23°00′05″S   44°18′52″W
темп.,
°C
ветер,
м/с
пор.,
м/с
влажн.,
%
обл.,
%
осадки,
мм/ч
давл.,
гПа
погр.,
м
1 марта, пн
пн100:00+22с228636 0.5 101460
03:00+22ссв238558 0.6 101389
06:00+21ссв238188 0.0 101488
09:00+26св126390 0.0 1016359
12:00+28юв1357100 0.0 1014766
15:00+29юв236373 0.0 1012540
18:00+24вюв358572 0.1 1012286
21:00+23ссз118986 0.1 101448
2 марта, вт
вт200:00+23с2283100 0.0 101565
03:00+23ссв238298 0.0 101492
06:00+22ссв23807 0.0 101598
09:00+27св127027 0.0 1016318
12:00+29ю226073 0.1 1016774
15:00+26ююз118686 2.0 1013209
18:00+25в1287100 1.1 101482
21:00+23с2287100 1.1 101639
3 марта, ср
ср300:00+23ссв3384100 0.0 101676
03:00+23ссв348284 0.0 1015105
06:00+23ссв337715 0.0 101785
09:00+27ссв016832 0.0 1017295
12:00+30ююв335528 0.0 1017760
15:00+28юз226333 0.1 1015483
18:00+25ююз118129 1.1 101475
21:00+23с228841 1.5 101640
4 марта, чт
чт400:00+23с2284100 0.0 101653
03:00+23с3384100 0.0 101561
06:00+23с2280100 0.0 101559
09:00+27зсз0169100 0.0 1016275
12:00+28ююв2261100 0.0 1015533
15:00+28ю226799 0.2 1012388
18:00+26ююв118598 0.8 101126
21:00+24с128797 1.1 101329
5 марта, пт
пт500:00+23с228196 0.0 101255
03:00+23с228289 0.0 101156
06:00+23ссв2377100 0.0 101163
09:00+27с1267100 0.0 1011206
12:00+30ююв225266 0.0 1010863
15:00+28юз116479 0.2 1008337
18:00+24юз2284100 0.9 1009101
21:00+24ссв1186100 1.4 101131